Regional Weather Roundup
Issued by NWS

Home | Current Version | Previous Version | Graphics & Text | Print | Product List | Glossary On
Versions: 1 2 3 4 5 6 7 8 9 10 11 12 13 14 15 16 17 18 19 20 21 22 23 24 25 26 27 28
000
ASUS45 KCYS 010510
RWRWY

WYOMING REGIONAL WEATHER ROUNDUP
NATIONAL WEATHER SERVICE CHEYENNE WY
1100 PM MDT FRI SEP 30 2016

NOTE:  "FAIR" INDICATES FEW OR NO CLOUDS BELOW 12,000 FEET
WITH NO SIGNIFICANT WEATHER AND/OR OBSTRUCTIONS TO VISIBILITY.

WYZ001-010600-
YELLOWSTONE NATIONAL PARK

CITY           SKY/WX    TMP DP  RH WIND       PRES   REMARKS
LK YELLOWSTONE   N/A     36  36 100 CALM      30.30F
W YELLOWSTONE  NOT AVBL

$$
WYZ002>013-054>058-071-098>099-010600-
NORTHERN WYOMING

CITY           SKY/WX    TMP DP  RH WIND       PRES   REMARKS
JACKSON        FAIR      43  43 100 NE5       30.23S
CODY           FAIR      58  47  66 SW5       30.13S
GREYBULL       FAIR      61  48  62 SE6       30.05S
WORLAND        FAIR      52  47  83 SW7       30.06S
SHERIDAN       FAIR      53  47  79 CALM      30.05S
BUFFALO        FAIR      62  43  49 W3        30.11S
GILLETTE       FAIR      51  47  86 S5        30.06S
HULETT         FAIR      55  46  71 S6        30.08S
NEWCASTLE      FAIR      64  43  45 E13G20    30.08S

$$
WYZ014>020-022>026-101>103-010600-
CENTRAL WYOMING

CITY           SKY/WX    TMP DP  RH WIND       PRES   REMARKS
BIG PINEY      FAIR      43  37  79 NW6       30.26S
PINEDALE       MOCLDY    41  36  81 NW12      30.27S
DUBOIS         FAIR      48  37  66 W5        30.25S
LANDER         FAIR      58  43  57 E3        30.14R
RIVERTON       FAIR      58  43  57 CALM      30.14S
CASPER         FAIR      49  40  71 CALM      30.14S
DOUGLAS        FAIR      50  45  83 E7        30.12S

$$
WYZ021-027>030-104>119-010600-
SOUTHERN WYOMING

CITY           SKY/WX    TMP DP  RH WIND       PRES   REMARKS
EVANSTON       FAIR      52  40  63 SE7       30.26S
FORT BRIDGER   FAIR      53  39  59 SW10      30.28F
ROCK SPRINGS   MOCLDY    57  42  57 SW3       30.24S
DIXON          FAIR      47  41  80 E5        30.30R
RAWLINS        FAIR      55  38  52 SW8       30.24S
SARATOGA       FAIR      45  39  81 E6        30.27S
LARAMIE        FAIR      47  42  83 S5        30.27R
CHEYENNE       FAIR      51  45  79 W7        30.22S
TORRINGTON     FAIR      55  47  74 SE8       30.10S
PINE BLUFFS    FAIR      50  43  76 SW7       30.18S

$$




USA.gov is the U.S. government's official web portal to all federal, state and local government web resources and services.